KD7CTY Weather Reports


time (UTC)temp
F
wind
direction
speed
knots
gust
knots
rain 1hr
in
rain 24hr
in
rain mn
in
humidity
%
barometer
mb
20260507015111 56 273 1.7 1.7 0.00 0.00 0.00 86 1019.1
20260507014607 56 8 0.9 1.7 0.00 0.00 0.00 86 1019.0
20260507014103 56 287 1.7 1.7 0.00 0.00 0.00 85 1019.2
20260507013600 56 239 0.9 0.9 0.00 0.00 0.00 86 1019.0
20260507013057 56 357 0.9 0.9 0.00 0.00 0.00 86 1019.0
20260507012554 56 248 2.6 4.3 0.00 0.00 0.00 85 1019.0
20260507012050 56 284 3.5 4.3 0.00 0.00 0.00 85 1019.0
20260507011547 56 202 3.5 4.3 0.00 0.00 0.00 84 1019.2
20260507011038 57 76 1.7 2.6 0.00 0.00 0.00 84 1019.2
20260507010532 56 226 1.7 1.7 0.00 0.00 0.00 85 1019.3
20260507010029 56 209 2.6 2.6 0.00 0.00 0.00 84 1019.4
20260507005527 57 212 3.5 4.3 0.00 0.00 0.00 84 1019.2
20260507005023 57 77 0.9 0.9 0.00 0.00 0.00 85 1019.3
20260507004520 57 285 2.6 2.6 0.00 0.00 0.00 85 1019.4
20260507004018 57 11 0.9 0.9 0.00 0.00 0.00 84 1019.2
20260507003513 57 158 2.6 4.3 0.00 0.00 0.00 84 1019.2
20260507003008 57 249 4.3 5.2 0.00 0.00 0.00 83 1019.1
20260507002505 57 257 0.9 1.7 0.00 0.00 0.00 83 1019.4
20260507002001 57 256 2.6 2.6 0.00 0.00 0.00 85 1019.2
20260507001458 57 243 3.5 4.3 0.00 0.00 0.00 84 1018.9
20260507000955 57 308 0.9 0.9 0.00 0.00 0.00 85 1019.0
20260507000451 57 31 0.0 0.9 0.00 0.00 0.00 86 1019.2
20260506235946 57 286 1.7 2.6 0.00 0.00 0.00 84 1019.2
20260506235444 56 17 0.9 0.9 0.00 0.00 0.00 85 1019.1
20260506234940 57 160 2.6 2.6 0.00 0.00 0.00 85 1019.1
20260506234438 56 33 0.0 0.9 0.00 0.00 0.00 85 1019.2
20260506233935 56 236 4.3 5.2 0.00 0.00 0.00 86 1019.1
20260506233431 56 38 1.7 2.6 0.00 0.00 0.00 85 1019.5
20260506232928 56 140 1.7 2.6 0.00 0.00 0.00 85 1019.3
20260506232424 56 288 1.7 1.7 0.00 0.00 0.00 85 1019.3
20260506231920 56 231 4.3 5.2 0.00 0.00 0.00 84 1019.1
20260506231418 56 311 0.9 0.9 0.00 0.00 0.00 85 1019.4
20260506230915 56 248 2.6 4.3 0.00 0.00 0.00 85 1019.5
20260506230411 56 108 1.7 1.7 0.00 0.00 0.00 86 1019.5
20260506225908 56 51 4.3 5.2 0.00 0.00 0.00 86 1019.4
20260506225405 56 269 1.7 1.7 0.00 0.00 0.00 86 1019.3
20260506224902 56 269 1.7 1.7 0.00 0.00 0.00 85 1019.5
20260506224400 56 40 1.7 4.3 0.00 0.00 0.00 86 1019.4
20260506223855 55 256 3.5 5.2 0.00 0.00 0.00 86 1019.5
20260506223351 56 127 1.7 1.7 0.00 0.00 0.00 85 1019.5
20260506222848 57 47 0.9 1.7 0.00 0.00 0.00 84 1019.5
20260506222344 56 260 0.9 0.9 0.00 0.00 0.00 85 1019.3
20260506221842 56 338 1.7 1.7 0.00 0.00 0.00 85 1019.6
20260506221339 55 243 6.1 7.0 0.00 0.00 0.00 85 1019.7
20260506220837 55 242 2.6 4.3 0.00 0.00 0.00 86 1019.6
20260506220332 55 230 2.6 2.6 0.00 0.00 0.00 85 1019.5
20260506215829 55 251 2.6 2.6 0.00 0.00 0.00 86 1019.6
20260506215325 55 37 1.7 2.6 0.00 0.00 0.00 85 1019.9
20260506214821 56 344 0.9 0.9 0.00 0.00 0.00 85 1019.7
20260506214317 55 222 3.5 5.2 0.00 0.00 0.00 85 1019.6
20260506213816 55 193 2.6 2.6 0.00 0.00 0.00 85 1019.6
20260506213313 55 243 5.2 6.1 0.00 0.00 0.00 86 1019.6
20260506212810 55 13 1.7 2.6 0.00 0.00 0.00 85 1019.6
20260506212307 55 248 4.3 4.3 0.00 0.00 0.00 85 1019.6
20260506211801 55 192 3.5 5.2 0.00 0.00 0.00 85 1019.7
20260506211257 55 345 0.9 1.7 0.00 0.00 0.00 85 1019.7
20260506210755 55 60 2.6 2.6 0.00 0.00 0.00 84 1019.7
20260506210251 55 0 1.7 1.7 0.00 0.00 0.00 85 1019.7
20260506205748 55 349 2.6 4.3 0.00 0.00 0.00 85 1019.7
20260506205244 55 201 1.7 2.6 0.00 0.00 0.00 85 1019.5
20260506204741 55 324 4.3 6.1 0.00 0.00 0.00 83 1019.5
20260506204239 55 0 0.0 0.9 0.00 0.00 0.00 85 1019.8
20260506203736 55 117 1.7 2.6 0.00 0.00 0.00 85 1019.6
20260506203233 55 234 2.6 2.6 0.00 0.00 0.00 84 1019.4
20260506202731 55 262 3.5 5.2 0.00 0.00 0.00 84 1019.4
20260506202227 54 352 0.9 1.7 0.00 0.00 0.00 85 1019.5
20260506201724 55 197 3.5 5.2 0.00 0.00 0.00 84 1019.5
20260506201220 55 29 0.9 0.9 0.00 0.00 0.00 84 1019.6
20260506200717 54 82 4.3 5.2 0.00 0.00 0.00 84 1019.4
20260506200208 54 222 4.3 8.7 0.00 0.00 0.00 85 1019.4
20260506195659 54 195 1.7 1.7 0.00 0.00 0.00 85 1019.6
20260506195155 54 240 4.3 6.1 0.00 0.00 0.00 84 1019.3
20260506194653 55 238 2.6 2.6 0.00 0.00 0.00 84 1019.4
20260506194149 55 224 3.5 5.2 0.00 0.00 0.00 83 1019.4
20260506193647 55 198 1.7 2.6 0.00 0.00 0.00 84 1019.6
20260506193144 54 220 3.5 4.3 0.00 0.00 0.00 85 1019.5
20260506192640 54 282 4.3 6.1 0.00 0.00 0.00 84 1019.5
20260506192137 54 247 3.5 4.3 0.00 0.00 0.00 84 1019.4
20260506191634 54 223 7.8 8.7 0.00 0.00 0.00 84 1019.3
20260506191130 54 297 3.5 4.3 0.00 0.00 0.00 85 1019.3
20260506190627 54 175 3.5 4.3 0.00 0.00 0.00 84 1019.3
20260506190124 54 305 3.5 4.3 0.00 0.00 0.00 85 1019.3
20260506185621 54 233 6.1 7.8 0.00 0.00 0.00 84 1019.1
20260506185117 54 243 6.1 9.6 0.00 0.00 0.00 84 1019.2
20260506184615 53 355 0.9 0.9 0.00 0.00 0.00 86 1019.3
20260506184112 53 215 4.3 6.1 0.00 0.00 0.00 86 1019.4
20260506183608 53 201 5.2 6.1 0.00 0.00 0.00 86 1019.3
20260506183104 53 219 2.6 4.3 0.00 0.00 0.00 86 1019.3
20260506182601 53 231 2.6 2.6 0.00 0.00 0.00 87 1019.4
20260506182053 53 236 3.5 6.1 0.00 0.00 0.00 86 1019.3
20260506181551 53 226 1.7 2.6 0.00 0.00 0.00 87 1019.3
20260506181047 53 250 8.7 11.3 0.00 0.00 0.00 86 1019.1
20260506180544 53 197 3.5 4.3 0.00 0.00 0.00 87 1019.1
20260506180041 53 241 6.1 6.1 0.00 0.00 0.00 87 1019.1
20260506175537 53 300 2.6 2.6 0.00 0.00 0.00 87 1018.9
20260506175034 53 239 6.1 7.8 0.00 0.00 0.00 88 1019.1
20260506174533 53 258 3.5 4.3 0.00 0.00 0.00 89 1019.1
20260506174028 53 3 0.9 0.9 0.00 0.00 0.00 90 1018.9
20260506173526 52 263 8.7 9.6 0.00 0.00 0.00 89 1019.0
20260506173023 52 238 7.0 8.7 0.00 0.00 0.00 90 1018.8
20260506172520 52 240 4.3 7.0 0.00 0.00 0.00 92 1019.0
20260506172016 52 223 4.3 5.2 0.00 0.00 0.00 92 1019.1
20260506171514 52 256 6.1 7.8 0.00 0.00 0.00 93 1018.9
20260506171010 52 203 3.5 6.1 0.00 0.00 0.00 93 1019.0
20260506170507 51 256 5.2 6.1 0.00 0.00 0.00 94 1018.9
20260506170000 51 153 3.5 5.2 0.00 0.00 0.00 94 1018.9
20260506165459 51 258 3.5 4.3 0.00 0.00 0.00 95 1019.1
20260506164954 51 205 1.7 1.7 0.00 0.00 0.00 96 1018.8
20260506164451 51 216 1.7 1.7 0.00 0.00 0.00 97 1019.0
20260506163949 50 268 3.5 5.2 0.00 0.00 0.00 98 1019.0
20260506163444 51 275 2.6 4.3 0.00 0.00 0.00 98 1019.0
20260506162939 51 209 3.5 6.1 0.00 0.00 0.00 98 1018.9
20260506162437 51 257 1.7 2.6 0.00 0.00 0.00 99 1019.0
20260506161934 51 256 6.1 6.1 0.00 0.00 0.00 99 1018.9
20260506161431 51 267 1.7 1.7 0.00 0.00 0.00 99 1018.7
20260506160923 51 255 1.7 2.6 0.00 0.00 0.00 99 1018.5
20260506160420 51 23 4.3 6.1 0.00 0.00 0.00 99 1018.4
20260506155918 51 182 1.7 4.3 0.00 0.00 0.00 99 1018.4
20260506155414 51 179 4.3 5.2 0.00 0.00 0.00 99 1018.3
20260506153531 51 241 4.3 5.2 0.00 0.00 0.00 97 1018.5
20260506153028 51 239 3.5 4.3 0.00 0.00 0.00 97 1018.6
20260506152525 51 272 0.9 1.7 0.00 0.00 0.00 97 1018.6
20260506152023 51 277 2.6 2.6 0.00 0.00 0.00 96 1018.8
20260506151521 51 196 4.3 5.2 0.00 0.00 0.00 96 1018.6
20260506151018 51 167 2.6 2.6 0.00 0.00 0.00 96 1018.6
20260506150514 51 228 6.1 7.8 0.00 0.00 0.00 97 1018.8
20260506150011 51 261 4.3 5.2 0.00 0.00 0.00 97 1018.6
20260506145508 51 247 2.6 4.3 0.00 0.00 0.00 97 1018.6
20260506145006 51 218 2.6 2.6 0.00 0.00 0.00 97 1018.5
20260506144502 52 111 2.6 2.6 0.00 0.00 0.00 97 1018.0
20260506144000 51 218 2.6 4.3 0.00 0.00 0.00 97 1017.9
20260506143457 51 290 0.9 0.9 0.00 0.00 0.00 98 1018.4
20260506142955 51 232 3.5 4.3 0.00 0.00 0.00 98 1018.4
20260506142453 51 335 1.7 1.7 0.00 0.00 0.00 98 1018.5
20260506141950 51 202 4.3 7.0 0.00 0.00 0.00 98 1018.4
20260506141448 51 149 2.6 5.2 0.00 0.00 0.00 98 1018.2
20260506140946 51 215 2.6 2.6 0.00 0.00 0.00 99 1018.3
20260506140443 51 117 0.9 0.9 0.00 0.00 0.00 99 1018.2
20260506135940 51 301 1.7 1.7 0.00 0.00 0.00 99 1018.2
20260506135437 51 231 1.7 1.7 0.00 0.00 0.00 99 1018.3
20260506134933 51 73 1.7 1.7 0.00 0.00 0.00 99 1018.3
20260506134429 50 34 0.9 0.9 0.00 0.00 0.00 99 1018.1
20260506133926 50 286 0.9 0.9 0.00 0.00 0.00 99 1018.1
20260506133423 50 257 1.7 1.7 0.00 0.00 0.00 99 1018.2
20260506132920 50 207 4.3 6.1 0.00 0.00 0.00 99 1017.9
20260506132417 50 236 2.6 2.6 0.00 0.00 0.00 99 1018.0
20260506131915 50 123 0.9 1.7 0.00 0.00 0.00 99 1018.0
20260506131411 50 348 1.7 1.7 0.00 0.00 0.00 99 1018.0
20260506130908 50 287 0.9 0.9 0.00 0.00 0.00 99 1018.2
20260506130404 50 22 0.9 0.9 0.00 0.00 0.00 99 1017.7
20260506125903 50 6 1.7 1.7 0.00 0.00 0.00 99 1017.7
20260506125401 50 280 0.9 0.9 0.00 0.00 0.00 99 1017.8
20260506124859 50 248 1.7 1.7 0.00 0.00 0.00 99 1017.3
20260506124355 50 312 1.7 1.7 0.00 0.00 0.00 99 1017.6
20260506123853 50 95 0.9 0.9 0.00 0.00 0.00 99 1017.7
20260506123351 50 170 2.6 4.3 0.00 0.00 0.00 99 1017.6
20260506122848 50 246 3.5 4.3 0.00 0.00 0.00 99 1017.5
20260506122345 50 303 1.7 1.7 0.00 0.00 0.00 99 1017.6
20260506121843 51 297 4.3 6.1 0.00 0.00 0.00 99 1017.6
20260506121340 51 310 2.6 4.3 0.00 0.00 0.00 98 1017.4
20260506120837 51 204 3.5 6.1 0.00 0.00 0.00 98 1017.7
20260506120335 51 104 0.9 0.9 0.00 0.00 0.00 98 1017.5
20260506115832 51 194 4.3 5.2 0.00 0.00 0.00 98 1017.5
20260506115330 51 305 2.6 2.6 0.00 0.00 0.00 98 1017.5
20260506114828 51 43 1.7 1.7 0.00 0.00 0.00 98 1017.5
20260506114325 51 240 4.3 6.1 0.00 0.00 0.00 98 1017.6
20260506113824 51 283 5.2 6.1 0.00 0.00 0.00 98 1017.6
20260506113321 51 298 2.6 2.6 0.00 0.00 0.00 98 1017.5
20260506112817 51 215 3.5 5.2 0.00 0.00 0.00 98 1017.5
20260506112315 51 320 1.7 1.7 0.00 0.00 0.00 98 1017.2
20260506111812 51 318 0.9 0.9 0.00 0.00 0.00 98 1016.9
20260506111310 51 96 0.9 0.9 0.00 0.00 0.00 98 1017.2
20260506110807 51 328 0.9 1.7 0.00 0.00 0.00 98 1017.2
20260506110304 51 121 1.7 1.7 0.00 0.00 0.00 98 1017.2
20260506105801 51 21 0.9 0.9 0.00 0.00 0.00 98 1017.3
20260506105258 51 31 0.9 0.9 0.00 0.00 0.00 98 1017.3
20260506104755 51 241 2.6 4.3 0.00 0.00 0.00 98 1017.3
20260506104253 51 7 0.9 0.9 0.00 0.00 0.00 98 1017.1
20260506103750 51 199 1.7 1.7 0.00 0.00 0.00 98 1017.0
20260506103247 51 289 2.6 2.6 0.00 0.00 0.00 98 1017.0
20260506102745 51 219 2.6 2.6 0.00 0.00 0.00 98 1017.1
20260506102243 51 4 0.9 0.9 0.00 0.00 0.00 98 1017.0
20260506101739 51 251 1.7 1.7 0.00 0.00 0.00 98 1017.0
20260506101236 51 318 2.6 2.6 0.00 0.00 0.00 98 1016.9
20260506100734 51 143 1.7 1.7 0.00 0.00 0.00 98 1017.0
20260506100232 51 324 0.9 0.9 0.00 0.00 0.00 98 1016.9
20260506095730 51 104 1.7 1.7 0.00 0.00 0.00 98 1016.9
20260506095226 51 337 2.6 2.6 0.00 0.00 0.00 98 1016.9
20260506094723 51 262 1.7 2.6 0.00 0.00 0.00 99 1016.6
20260506094222 51 281 3.5 4.3 0.00 0.00 0.00 99 1016.6
20260506093720 51 265 4.3 5.2 0.00 0.00 0.00 99 1016.5
20260506093217 51 275 2.6 2.6 0.00 0.00 0.00 99 1016.6
20260506092715 50 237 3.5 4.3 0.00 0.00 0.00 99 1016.5
20260506092212 50 287 3.5 5.2 0.00 0.00 0.00 99 1016.5
20260506091710 50 264 2.6 2.6 0.00 0.00 0.00 99 1016.6
20260506091207 50 212 1.7 1.7 0.00 0.00 0.00 99 1016.6
20260506090704 50 322 1.7 2.6 0.00 0.00 0.00 99 1016.5
20260506090201 50 245 2.6 2.6 0.00 0.00 0.00 99 1016.6
20260506085658 50 287 4.3 5.2 0.00 0.00 0.00 99 1016.3
20260506085154 50 302 1.7 2.6 0.00 0.00 0.00 99 1016.3
20260506084651 50 170 2.6 2.6 0.00 0.00 0.00 99 1016.4
20260506084147 50 291 2.6 2.6 0.00 0.00 0.00 99 1016.2
20260506083644 50 325 1.7 1.7 0.00 0.00 0.00 99 1016.2
20260506083142 50 350 2.6 4.3 0.00 0.00 0.00 99 1016.0
20260506082639 50 337 1.7 1.7 0.00 0.00 0.00 99 1016.2
20260506082134 50 345 0.9 0.9 0.00 0.00 0.00 99 1016.1
20260506081632 50 331 2.6 2.6 0.00 0.00 0.00 98 1016.0
20260506081130 50 232 1.7 2.6 0.00 0.00 0.00 99 1016.1
20260506080627 51 210 1.7 1.7 0.00 0.00 0.00 98 1015.9
20260506080124 51 145 0.9 1.7 0.00 0.00 0.00 98 1016.0
20260506073108 51 279 2.6 2.6 0.00 0.00 0.00 96 1015.9
20260506072604 51 324 1.7 1.7 0.00 0.00 0.00 96 1015.8
20260506072103 51 314 1.7 1.7 0.00 0.00 0.00 96 1015.8
20260506071600 52 229 1.7 1.7 0.00 0.00 0.00 96 1015.8
20260506071057 52 251 2.6 2.6 0.00 0.00 0.00 96 1015.6
20260506070554 52 224 3.5 5.2 0.00 0.00 0.00 95 1015.6
20260506062033 53 217 2.6 4.3 0.00 0.00 0.00 94 1015.4
20260506061529 53 185 2.6 2.6 0.00 0.00 0.00 93 1015.3
20260506061027 53 284 3.5 4.3 0.00 0.00 0.00 93 1015.3
20260506060526 53 294 2.6 2.6 0.00 0.00 0.00 92 1015.4
20260506050955 55 295 5.2 7.0 0.00 0.00 0.00 89 1015.0
20260506050452 56 252 5.2 6.1 0.00 0.00 0.00 89 1015.0
20260506044943 56 225 3.5 4.3 0.00 0.00 0.00 88 1014.7
20260506044441 56 233 2.6 4.3 0.00 0.00 0.00 88 1014.8
20260506043937 57 229 4.3 6.1 0.00 0.00 0.00 88 1014.7
20260506043435 57 268 2.6 2.6 0.00 0.00 0.00 88 1014.7
20260506042932 57 278 1.7 1.7 0.00 0.00 0.00 87 1014.5
20260506042431 57 252 1.7 1.7 0.00 0.00 0.00 87 1014.7
20260506041929 57 327 4.3 6.1 0.00 0.00 0.00 87 1014.8
20260506041427 57 340 0.0 0.9 0.00 0.00 0.00 88 1014.8
20260506040924 58 72 1.7 1.7 0.00 0.00 0.00 87 1014.5
20260506040421 58 225 2.6 2.6 0.00 0.00 0.00 87 1014.6
20260506035917 58 196 0.9 1.7 0.00 0.00 0.00 87 1014.6
20260506035415 58 30 0.9 0.9 0.00 0.00 0.00 87 1014.4
20260506034911 59 334 0.9 0.9 0.00 0.00 0.00 86 1014.3
20260506034409 59 217 0.9 1.7 0.00 0.00 0.00 86 1014.2
20260506033906 59 285 1.7 1.7 0.00 0.00 0.00 86 1014.3
20260506033403 59 86 0.9 0.9 0.00 0.00 0.00 85 1014.2
20260506032859 59 143 1.7 1.7 0.00 0.00 0.00 85 1014.2
20260506032356 60 359 0.9 0.9 0.00 0.00 0.00 84 1014.3
20260506031853 60 337 0.9 0.9 0.00 0.00 0.00 83 1014.0
20260506031350 60 29 0.0 0.0 0.00 0.00 0.00 83 1014.2
20260506030848 61 16 0.9 0.9 0.00 0.00 0.00 82 1013.9
20260506030346 61 23 0.0 0.9 0.00 0.00 0.00 82 1014.2
20260506025843 61 227 0.9 1.7 0.00 0.00 0.00 81 1014.0
20260506025339 62 27 0.9 0.9 0.00 0.00 0.00 80 1014.1
20260506024836 62 352 0.9 0.9 0.00 0.00 0.00 80 1014.0
20260506024333 63 319 1.7 1.7 0.00 0.00 0.00 78 1014.0
20260506023829 63 218 1.7 2.6 0.00 0.00 0.00 78 1013.8
20260506023326 64 332 0.9 0.9 0.00 0.00 0.00 77 1013.9
20260506022823 65 312 0.9 0.9 0.00 0.00 0.00 76 1013.9
20260506022320 64 200 1.7 1.7 0.00 0.00 0.00 75 1013.7
20260506021819 65 102 0.9 1.7 0.00 0.00 0.00 76 1014.0
20260506021315 65 331 0.9 1.7 0.00 0.00 0.00 74 1013.8
20260506020812 65 349 1.7 1.7 0.00 0.00 0.00 75 1014.0
20260506020310 66 70 0.9 0.9 0.00 0.00 0.00 74 1013.8
20260506015807 67 15 0.0 0.9 0.00 0.00 0.00 72 1014.0
20260506015306 66 23 0.9 0.9 0.00 0.00 0.00 74 1013.7